This is the latest recevied weather packets stored in our database for station/object KE5VT. If no packets are shown the sender has not sent any weather packets the latest 10 day(s).
| Time | Temp. | Humidity | Pressure | Rain* | Wind** | Luminosity | Snow |
|---|---|---|---|---|---|---|---|
| 1787547250 | 23.33° C | 82% | 1011.8 hPa | 0 mm | - | 0 W/m² | - |
| 1787546945 | 23.33° C | 82% | 1011.8 hPa | 0 mm | - | 0 W/m² | - |
| 1787546641 | 23.33° C | 82% | 1012 hPa | 0 mm | - | 0 W/m² | - |
| 1787546336 | 23.33° C | 81% | 1012 hPa | 0 mm | - | 0 W/m² | - |
| 1787546032 | 23.89° C | 81% | 1011.9 hPa | 0 mm | - | 0 W/m² | - |
| 1787545728 | 23.89° C | 80% | 1011.9 hPa | 0 mm | - | 0 W/m² | - |
| 1787545423 | 23.89° C | 79% | 1011.8 hPa | 0 mm | - | 0 W/m² | - |
| 1787545120 | 23.89° C | 79% | 1012.1 hPa | 0 mm | - | 0 W/m² | - |
| 1787544817 | 23.89° C | 79% | 1012 hPa | 0 mm | - | 0 W/m² | - |
| 1787544512 | 23.89° C | 78% | 1011.7 hPa | 0 mm | - | 0 W/m² | - |
| 1787544209 | 23.89° C | 77% | 1011.9 hPa | 0 mm | - | 0 W/m² | - |
| 1787543908 | 24.44° C | 78% | 1011.9 hPa | 0 mm | - | 0 W/m² | - |
| 1787543605 | 23.89° C | 77% | 1011.9 hPa | 0 mm | - | 0 W/m² | - |
| 1787543300 | 24.44° C | 77% | 1012.3 hPa | 0 mm | - | 0 W/m² | - |
| 1787542997 | 24.44° C | 75% | 1012.1 hPa | 0 mm | - | 0 W/m² | - |
| 1787542696 | 24.44° C | 75% | 1011.9 hPa | 0 mm | - | 0 W/m² | - |
| 1787542392 | 25° C | 74% | 1012 hPa | 0 mm | - | 0 W/m² | - |
| 1787542088 | 24.44° C | 75% | 1012.1 hPa | 0 mm | - | 0 W/m² | - |
| 1787541784 | 24.44° C | 76% | 1011.9 hPa | 0 mm | - | 0 W/m² | - |
| 1787541480 | 25° C | 74% | 1011.8 hPa | 0 mm | - | 0 W/m² | - |
| 1787541177 | 25° C | 75% | 1012 hPa | 0 mm | - | 0 W/m² | - |
| 1787540873 | 25° C | 75% | 1012 hPa | 0 mm | - | 0 W/m² | - |
| 1787540569 | 24.44° C | 75% | 1011.8 hPa | 0 mm | - | 0 W/m² | - |
| 1787540265 | 25° C | 74% | 1011.7 hPa | 0 mm | - | 0 W/m² | - |
| 1787539963 | 25° C | 74% | 1011.8 hPa | 0 mm | - | 0 W/m² | - |
* Rain latest hour (hover to see other rain measurements)
** Current wind speed in m/s (hover to see current wind gust speed)